[[{"header":{"parameterUnit":"m.s-1","parameterCategory":1,"la1":30.2991,"la2":30.254,"lo1":-89.0895,"lo2":-89.0444,"dx":0.0017,"dy":0.0017,"nx":28,"ny":28,"refTime":"2023-02-12T09:00:00:Z","depth":0,"parameterNumber":2,"parameterNumberName":"U-component_of_WINDS"},"data":[0,0,0,0,0,0,0,0,0,0,0,0,0,0,0,0,0,0,0,0,0,0,0,0,0,0,0,0,0,0,0,0,0,0,0,0,0,0,0,0,0,0,0,0,0,0,0,0,0,0,0,0,0,0,0,0,0,0,0.793,0.793,0,0.791,0.791,0.7909,0.7919,0.7919,0.792,0.792,0.7896,0.7895,0.7894,0,0,0,0,0,0,0,0,0,0,0,0,0,0.7975,0.7975,0.7931,0.793,0.793,0.791,0.7909,0.7909,0.7919,0.7919,0.792,0.792,0.7897,0.7895,0.7894,0,0,0,0,0,0,0,0,0,0,0,0,0,0.7955,0.7974,0.7931,0.7932,0.7932,0.791,0.7909,0.7909,0.7918,0.7919,0.792,0.7921,0.7897,0.7895,0.7894,0.7868,0,0,0.7889,0.7888,0,0,0,0,0,0,0,0,0.7956,0.7954,0.7932,0.7932,0.7932,0.7918,0.7917,0.7895,0.7918,0.7924,0.792,0.7921,0.7903,0.79,0.7895,0.7867,0.7865,0.7888,0.7887,0.7887,0.7886,0,0,0,0,0,0,0,0.7958,0.7955,0.7922,0.7932,0.7932,0.7933,0.7931,0.7913,0.7909,0.7923,0.7924,0.7921,0.7903,0.7896,0.7894,0.7865,0.7888,0.7887,0.7886,0.7885,0.7813,0.7812,0,0,0,0,0,0,0.796,0.7956,0.7923,0.7922,0.7947,0.7932,0.793,0.7921,0.7909,0.7908,0.7921,0.7922,0.7899,0.7896,0.7893,0.7861,0.7887,0.7885,0.7884,0.7814,0.7813,0.7812,0,0,0,0,0,0,0.7961,0.7957,0.7924,0.7939,0.7935,0.793,0.7921,0.7921,0.7914,0.7907,0.7906,0.7915,0.7899,0.7896,0.7874,0.786,0.7884,0.7883,0.7815,0.7814,0.7813,0.7797,0,0,0,0,0,0,0.7962,0.7957,0.7948,0.7939,0.7934,0.7905,0.792,0.792,0.7912,0.7913,0.7902,0.7901,0.79,0.7876,0.7872,0.7859,0.7882,0.7816,0.7815,0.7813,0.7799,0.7795,0.7792,0,0,0,0,0,0.7963,0.7944,0.7947,0.7943,0.7922,0.7905,0.7902,0.7902,0.7911,0.7901,0.7896,0.7901,0.7863,0.7874,0.7869,0.7855,0.7817,0.7815,0.7813,0.78,0.7796,0.7792,0,0,0,0,0,0,0.795,0.7942,0.7946,0.7923,0.7915,0.7906,0.7894,0.7898,0.7886,0.7887,0.7887,0.7884,0.7861,0.7856,0.7869,0.7829,0.7841,0.7838,0.7833,0.7829,0.7826,0.7827,0.788,0,0,0,0,0,0.7945,0.7932,0.7926,0.7906,0.7901,0.7898,0.789,0.7891,0.7882,0.7878,0.7872,0.7862,0.7848,0.7838,0.7825,0.7798,0.7795,0.7786,0.7783,0.778,0.7777,0.7762,0.7757,0.7805,0.7805,0.7806,0,0,0.7933,0.7927,0.7919,0.7903,0.7896,0.7882,0.7895,0.7879,0.7868,0.7875,0.7854,0.7849,0.7838,0.7814,0.7803,0.7809,0.7764,0.7778,0.7776,0.7774,0.7759,0.7755,0.7751,0.7804,0.7804,0.7805,0,0,0.7904,0.7899,0.7882,0.7875,0.7865,0.7863,0.7859,0.785,0.7847,0.7826,0.7831,0.7818,0.7793,0.7785,0.7777,0.7745,0.7749,0.7741,0.7724,0.7709,0.7705,0.7702,0.7689,0.7684,0.7738,0.7738,0.7738,0,0.7891,0.787,0.7872,0.7856,0.7848,0.7855,0.7836,0.783,0.7815,0.7809,0.7817,0.7786,0.7779,0.7752,0.7744,0.7738,0.7733,0.7742,0.7706,0.7702,0.7699,0.7687,0.7682,0.7737,0.7737,0.7737,0.7737,0,0.7853,0.7839,0.7826,0.7813,0.7803,0.7786,0.7785,0.7775,0.7777,0.7774,0.7752,0.7744,0.7728,0.7722,0.7723,0.7695,0.7699,0.7706,0.7718,0.7693,0.7682,0.7677,0.7736,0.7736,0.7736,0.7737,0,0,0.7815,0.7803,0.7798,0.7792,0.7782,0.777,0.7753,0.7738,0.773,0.772,0.7704,0.7684,0.769,0.7681,0.7682,0.7669,0.7642,0.7677,0.7677,0.767,0.7609,0.7603,0.7598,0.7645,0.7644,0.7644,0.761,0,0.7784,0.7755,0.7756,0.7728,0.7714,0.772,0.7705,0.7696,0.7693,0.768,0.7676,0.7661,0.7671,0.7666,0.7653,0.7648,0.763,0.7651,0.7629,0.7629,0.7631,0.7592,0.7585,0.7554,0.7605,0.7604,0.7604,0,0.7745,0.7734,0.7705,0.7696,0.769,0.7676,0.7663,0.7651,0.7641,0.7639,0.763,0.7632,0.7614,0.7628,0.7601,0.7615,0.7607,0.7603,0.7602,0.7598,0.7614,0.7586,0.7544,0.7538,0.7597,0.7598,0.7598,0,0.7718,0.7696,0.7676,0.767,0.766,0.765,0.7645,0.7636,0.7627,0.7615,0.7609,0.7595,0.7587,0.7576,0.7574,0.7584,0.7547,0.7561,0.7543,0.7543,0.7534,0.7535,0.7488,0.7531,0.7531,0.7531,0.7531,0,0.7683,0.7665,0.7664,0.7651,0.763,0.7631,0.761,0.7606,0.7598,0.7584,0.7588,0.7575,0.7574,0.7559,0.7558,0.7535,0.7532,0.7529,0.7528,0.7528,0.7528,0.7521,0.7523,0.753,0.753,0.753,0.7531,0,0.7649,0.7648,0.7626,0.7618,0.7616,0.76,0.7593,0.758,0.7578,0.756,0.7555,0.7551,0.7534,0.7531,0.7512,0.7511,0.7483,0.7486,0.7487,0.7487,0.7469,0.747,0.7415,0.7408,0.7457,0.7457,0.7456,0,0.7626,0.7612,0.7603,0.7594,0.7589,0.7575,0.7566,0.7566,0.7557,0.7544,0.7532,0.7516,0.7503,0.7476,0.747,0.7455,0.7456,0.7438,0.7454,0.7453,0.7454,0.7455,0.7453,0.7435,0.7434,0.7434,0.7433,0,0.7586,0.7586,0.7573,0.756,0.755,0.7539,0.7529,0.7522,0.7521,0.7509,0.7493,0.7483,0.7463,0.7446,0.7431,0.7425,0.7428,0.7429,0.7424,0.7422,0.7423,0.7421,0.7477,0.743,0.743,0.743,0.7431,0.7431,0.7556,0.7543,0.7535,0.752,0.7513,0.7504,0.7491,0.7487,0.7474,0.7458,0.7459,0.744,0.743,0.741,0.7402,0.7387,0.7393,0.7386,0.7384,0.7382,0.7379,0.7426,0.7384,0.7384,0.7384,0.7385,0.7385,0,0.7514,0.7509,0.7496,0.7482,0.747,0.7476,0.7466,0.7455,0.7439,0.7429,0.7417,0.7397,0.7381,0.7374,0.7358,0.7347,0.7348,0.7342,0.7342,0.7341,0.7376,0.7381,0.7342,0.7342,0.7342,0.7342,0.7342,0.7342,0.7491,0.747,0.7469,0.7444,0.7438,0.7421,0.7414,0.7405,0.7397,0.7375,0.7362,0.7358,0.7349,0.7333,0.7318,0.7316,0.7309,0.7302,0.7301,0.7334,0.7338,0.7342,0.7347,0.7301,0.7301,0.7267,0.7267,0.7267]},{"header":{"parameterUnit":"m.s-1","parameterCategory":1,"la1":30.2991,"la2":30.254,"lo1":-89.0895,"lo2":-89.0444,"dx":0.0017,"dy":0.0017,"nx":28,"ny":28,"refTime":"2023-02-12T09:00:00:Z","depth":0,"parameterNumber":3,"parameterNumberName":"V-component_of_WINDS"},"data":[0,0,0,0,0,0,0,0,0,0,0,0,0,0,0,0,0,0,0,0,0,0,0,0,0,0,0,0,0,0,0,0,0,0,0,0,0,0,0,0,0,0,0,0,0,0,0,0,0,0,0,0,0,0,0,0,0,0,-2.3603,-2.3604,0,-2.3741,-2.3743,-2.3744,-2.3741,-2.3739,-2.3737,-2.3735,-2.3877,-2.3883,-2.3888,0,0,0,0,0,0,0,0,0,0,0,0,0,-2.3336,-2.3341,-2.3602,-2.3604,-2.3606,-2.3741,-2.3743,-2.3744,-2.3741,-2.3739,-2.3737,-2.3734,-2.3875,-2.3882,-2.3889,0,0,0,0,0,0,0,0,0,0,0,0,0,-2.3461,-2.3343,-2.3602,-2.3621,-2.3624,-2.374,-2.3743,-2.3745,-2.3742,-2.3739,-2.3736,-2.3733,-2.3873,-2.3881,-2.389,-2.3997,0,0,-2.3915,-2.3919,0,0,0,0,0,0,0,0,-2.3454,-2.3471,-2.3616,-2.3619,-2.3623,-2.3721,-2.3701,-2.383,-2.3742,-2.3697,-2.3735,-2.3732,-2.3828,-2.3839,-2.3872,-2.4004,-2.401,-2.3916,-2.3921,-2.3924,-2.3927,0,0,0,0,0,0,0,-2.3445,-2.3465,-2.3657,-2.3618,-2.3623,-2.3622,-2.3637,-2.3725,-2.3776,-2.3701,-2.3701,-2.3717,-2.3829,-2.3864,-2.3875,-2.4012,-2.3915,-2.3923,-2.3928,-2.3931,-2.4241,-2.4244,0,0,0,0,0,0,-2.3433,-2.3458,-2.3653,-2.3661,-2.353,-2.3629,-2.3645,-2.3692,-2.3775,-2.3785,-2.3719,-2.3716,-2.3851,-2.3865,-2.388,-2.4012,-2.3924,-2.3932,-2.3937,-2.4237,-2.4241,-2.4245,0,0,0,0,0,0,-2.3427,-2.345,-2.3647,-2.356,-2.3585,-2.3637,-2.3689,-2.3696,-2.3731,-2.379,-2.3799,-2.3745,-2.3849,-2.3868,-2.3968,-2.4017,-2.3936,-2.3943,-2.4234,-2.4239,-2.4243,-2.4277,0,0,0,0,0,0,-2.3419,-2.3448,-2.3489,-2.3561,-2.3589,-2.3733,-2.3692,-2.3701,-2.3745,-2.3743,-2.3816,-2.3826,-2.3848,-2.3956,-2.3977,-2.4027,-2.395,-2.423,-2.4236,-2.4242,-2.4272,-2.4282,-2.4291,0,0,0,0,0,-2.341,-2.3493,-2.3491,-2.3515,-2.3642,-2.3736,-2.3753,-2.3777,-2.3749,-2.3792,-2.3829,-2.3823,-2.4008,-2.3966,-2.3989,-2.4043,-2.4227,-2.4234,-2.4241,-2.4267,-2.428,-2.4291,0,0,0,0,0,0,-2.3427,-2.3503,-2.3502,-2.3611,-2.3667,-2.3735,-2.3789,-2.379,-2.3855,-2.385,-2.3877,-2.3894,-2.3994,-2.4028,-2.398,-2.4152,-2.4114,-2.4126,-2.4126,-2.4139,-2.4148,-2.4138,-2.3957,0,0,0,0,0,-2.3443,-2.3513,-2.3576,-2.3666,-2.3694,-2.3737,-2.3779,-2.3793,-2.3852,-2.3876,-2.3921,-2.3979,-2.405,-2.4096,-2.4165,-2.4277,-2.4293,-2.4325,-2.4335,-2.4342,-2.4353,-2.4415,-2.4431,-2.4269,-2.4269,-2.4269,0,0,-2.3478,-2.3528,-2.357,-2.3671,-2.3716,-2.3788,-2.3757,-2.3834,-2.3888,-2.3888,-2.3985,-2.402,-2.4086,-2.4193,-2.4242,-2.4225,-2.4401,-2.4352,-2.4358,-2.4364,-2.4424,-2.444,-2.4453,-2.4274,-2.4273,-2.4272,0,0,-2.3578,-2.3622,-2.3703,-2.3749,-2.3817,-2.3845,-2.3865,-2.3933,-2.3957,-2.4055,-2.4056,-2.412,-2.4242,-2.429,-2.433,-2.4448,-2.4446,-2.447,-2.4521,-2.4582,-2.4595,-2.4606,-2.4649,-2.4664,-2.448,-2.448,-2.448,0,-2.3612,-2.372,-2.3744,-2.3822,-2.3866,-2.3869,-2.3951,-2.3994,-2.4082,-2.4113,-2.4092,-2.4245,-2.429,-2.4408,-2.4437,-2.4469,-2.4492,-2.4462,-2.4591,-2.4603,-2.4614,-2.4655,-2.4671,-2.4482,-2.4482,-2.4482,-2.4482,0,-2.376,-2.3835,-2.3891,-2.3976,-2.4027,-2.4106,-2.4142,-2.4191,-2.42,-2.423,-2.433,-2.4384,-2.4464,-2.4493,-2.4503,-2.4613,-2.46,-2.4585,-2.4547,-2.4631,-2.467,-2.4686,-2.4486,-2.4485,-2.4484,-2.4484,0,0,-2.3874,-2.3971,-2.3992,-2.403,-2.4107,-2.4165,-2.4245,-2.4323,-2.4364,-2.4425,-2.4493,-2.4596,-2.4582,-2.4628,-2.4643,-2.4696,-2.4787,-2.4674,-2.4676,-2.4694,-2.4913,-2.4924,-2.4942,-2.4786,-2.4789,-2.4791,-2.4907,0,-2.3983,-2.4124,-2.4148,-2.4272,-2.4342,-2.4346,-2.4415,-2.447,-2.45,-2.4564,-2.4598,-2.4671,-2.4647,-2.4675,-2.4727,-2.4765,-2.4832,-2.4757,-2.485,-2.4853,-2.4834,-2.4963,-2.4975,-2.5082,-2.4923,-2.4925,-2.4927,0,-2.4129,-2.4193,-2.4324,-2.4391,-2.4421,-2.4483,-2.4557,-2.4618,-2.468,-2.4699,-2.475,-2.4759,-2.4842,-2.48,-2.4916,-2.4864,-2.4904,-2.4928,-2.4933,-2.4943,-2.4896,-2.4977,-2.5116,-2.5133,-2.4951,-2.4949,-2.4948,0,-2.42,-2.4319,-2.4413,-2.4446,-2.4527,-2.457,-2.4606,-2.4665,-2.4711,-2.4775,-2.4805,-2.4878,-2.4919,-2.4975,-2.5004,-2.4971,-2.5118,-2.5078,-2.5136,-2.5135,-2.5167,-2.5165,-2.5316,-2.5192,-2.5191,-2.5191,-2.5191,0,-2.4319,-2.4399,-2.4447,-2.4505,-2.4595,-2.4621,-2.471,-2.4744,-2.4797,-2.4862,-2.4869,-2.493,-2.4964,-2.503,-2.5053,-2.5146,-2.5164,-2.5181,-2.5187,-2.5181,-2.5179,-2.5208,-2.5202,-2.5195,-2.5194,-2.5193,-2.5193,0,-2.4414,-2.4449,-2.4552,-2.462,-2.4639,-2.4702,-2.476,-2.4817,-2.4847,-2.4929,-2.495,-2.4997,-2.5075,-2.511,-2.5206,-2.5221,-2.5327,-2.5327,-2.5307,-2.5309,-2.5365,-2.5359,-2.554,-2.5565,-2.5423,-2.5424,-2.5426,0,-2.4488,-2.455,-2.4625,-2.4669,-2.4706,-2.4776,-2.4823,-2.4851,-2.49,-2.4975,-2.5023,-2.5101,-2.5165,-2.529,-2.5333,-2.5407,-2.5409,-2.5467,-2.542,-2.5413,-2.5411,-2.5407,-2.5414,-2.5476,-2.5477,-2.5478,-2.5479,0,-2.4617,-2.4631,-2.4697,-2.4771,-2.4826,-2.4885,-2.4943,-2.4978,-2.5016,-2.507,-2.515,-2.52,-2.5298,-2.5376,-2.5452,-2.5489,-2.5491,-2.5494,-2.5511,-2.5507,-2.5493,-2.5502,-2.5331,-2.549,-2.5488,-2.5488,-2.5487,-2.5487,-2.4704,-2.476,-2.4821,-2.4895,-2.4941,-2.4995,-2.5052,-2.5089,-2.5156,-2.5238,-2.5251,-2.5337,-2.5397,-2.55,-2.554,-2.5608,-2.5593,-2.5618,-2.5625,-2.5631,-2.5635,-2.5481,-2.5622,-2.5621,-2.5621,-2.5621,-2.5621,0,-2.4834,-2.4873,-2.4941,-2.5022,-2.508,-2.5076,-2.514,-2.5189,-2.5264,-2.5321,-2.5384,-2.5476,-2.5552,-2.5601,-2.5677,-2.5722,-2.5725,-2.5741,-2.5739,-2.5747,-2.5643,-2.562,-2.5738,-2.5738,-2.5738,-2.5738,-2.5738,-2.5738,-2.4908,-2.5002,-2.5023,-2.514,-2.5179,-2.5263,-2.53,-2.5349,-2.5395,-2.5497,-2.556,-2.5591,-2.5645,-2.5726,-2.5795,-2.5808,-2.5836,-2.5853,-2.5865,-2.5767,-2.5755,-2.5743,-2.5722,-2.5859,-2.5859,-2.5964,-2.5965,-2.5966]}]]